Tracking 25656 objects as of 21-May-2022
HD Live streaming from Space Station
objects crossing your sky now

COSMOS 1814

Track COSMOS 1814 now!
10-day predictions
COSMOS 1814 is classified as:


NORAD ID: 17303
Int'l Code: 1987-006A
Perigee: 763.6 km
Apogee: 800.2 km
Inclination: 74.1 °
Period: 100.3 minutes
Semi major axis: 7152 km
RCS: 2.1989 m2 (large)
Launch date: January 21, 1987
Source: Commonwealth of Independent States (former USSR) (CIS)
Launch site: PLESETSK MISSILE AND SPACE COMPLEX (PKMTR)
aabbcc
Your satellite tracking list
Your tracking list is empty




NASA's NSSDC Master Catalog

Two Line Element Set (TLE):
1 17303U 87006A   22141.37249354  .00000205  00000-0  80606-4 0  9993
2 17303  74.0555 103.5525 0025554 214.7638 145.1846 14.35099245848769
Source of the keplerian elements: AFSPC